Grey Islet, British Columbia

8:18 PM PST on December 10, 2017 (GMT -0800)
Grey Islet

Weather History for CWEK - November, 2012

Change the Weather History Date:

Wednesday, November 14, 2012

  Actual Average Record
Temperature  
Mean Temperature 42 °F -  
Max Temperature 46 °F - - ()
Min Temperature 39 °F - - ()
Degree Days  
Heating Degree Days 22    
Moisture  
Dew Point 43 °F    
Average Humidity 90    
Maximum Humidity 97    
Minimum Humidity 81    
Precipitation  
Precipitation 0.04 in - - ()
Sea Level Pressure  
Sea Level Pressure 30.05 in    
Wind  
Wind Speed 18 mph ()    
Max Wind Speed 38 mph    
Max Gust Speed 46 mph    
T = Trace of Precipitation, MM = Missing Value Source: Averaged Metar Reports

Daily Weather History Graph

Daily Weather History Graph

Search for Another Location

Airport or City:

Trip Planner

Search our weather history database for the weather conditions in past years. The results will help you decide how hot, cold, wet, or windy it might be!

Date:

Astronomy

Nov. 14, 2012 Rise Set
Actual Time 8:12 AM PST 4:41 PM PST
Civil Twilight 7:32 AM PST 5:21 PM PST
Nautical Twilight 6:48 AM PST 6:05 PM PST
Astronomical Twilight 6:05 AM PST 6:48 PM PST
Moon 9:20 AM PST (11/14) 5:25 PM PST (11/14)
Length of Visible Light 9h 49m
Length of Day
8h 29m
New Moon, 1% of the Moon is Illuminated
Nov 14
New Moon
Nov 20
First Quarter
Nov 28
Full
Dec 6
Last Quarter
Dec 13
New

Hourly Weather History & Observations

Time (PST) Temp. Windchill Dew Point Humidity Pressure Visibility Wind Dir Wind Speed Gust Speed Precip Events Conditions
12:00 AM 43.9 °F 35.0 °F 43.2 °F 97% 30.05 in - South 23.0 mph - 0.02 in   Unknown
1:00 AM 45.0 °F 39.7 °F 44.1 °F 97% 30.07 in - South 10.4 mph - 0.01 in   Unknown
2:00 AM 44.8 °F 41.0 °F 42.3 °F 91% 30.08 in - SSW 6.9 mph - N/A   Unknown
3:00 AM 44.4 °F 39.5 °F 41.2 °F 88% 30.09 in - SW 9.2 mph - N/A   Unknown
4:00 AM 45 °F - 42 °F 86% 30.09 in - SSW 11.5 mph - -  
4:00 AM 44.8 °F 39.0 °F 42.3 °F 91% 30.09 in - SSW 11.5 mph - N/A   Unknown
5:00 AM 44.6 °F 38.8 °F 42.3 °F 91% 30.09 in - South 11.5 mph - N/A   Unknown
6:00 AM 44.2 °F 39.2 °F 42.8 °F 95% 30.10 in - SSW 9.2 mph - 0.05 in   Unknown
7:00 AM 44.8 °F 38.7 °F 42.6 °F 92% 30.09 in - South 12.7 mph - 0.01 in   Unknown
8:00 AM 44.8 °F 37.1 °F 42.6 °F 92% 30.10 in - South 18.4 mph - N/A   Unknown
9:00 AM 44.8 °F 36.9 °F 43.0 °F 93% 30.10 in - South 19.6 mph - N/A   Unknown
10:00 AM 45 °F - 43 °F 88% 30.09 in - SSE 21.9 mph - -  
10:00 AM 44.8 °F 36.4 °F 42.6 °F 92% 30.09 in - SSE 21.9 mph - N/A   Unknown
11:00 AM 44.8 °F 36.6 °F 42.8 °F 93% 30.10 in - South 20.7 mph - N/A   Unknown
12:00 PM 45.3 °F 36.9 °F 43.0 °F 92% 30.09 in - SSE 23.0 mph - N/A   Unknown
1:00 PM 45.7 °F 36.7 °F 43.2 °F 91% 30.07 in - South 26.5 mph - N/A   Unknown
2:00 PM 46.0 °F 37.6 °F 42.6 °F 88% 30.07 in - South 24.2 mph - N/A   Unknown
3:00 PM 45.3 °F 36.3 °F 43.5 °F 93% 30.05 in - South 26.5 mph - N/A   Unknown
4:00 PM 46 °F - 42 °F 81% 30.04 in - South 31.1 mph - -  
4:00 PM 45.9 °F 36.3 °F 42.1 °F 87% 30.04 in - South 31.1 mph 38.0 mph 0.01 in   Unknown
5:00 PM 45.9 °F 36.4 °F 41.9 °F 86% 30.03 in - South 29.9 mph 36.8 mph 0.01 in   Unknown
6:00 PM 46.0 °F 35.8 °F 41.9 °F 85% 30.01 in - South 36.8 mph - N/A   Unknown
7:00 PM 46.0 °F 35.8 °F 41.4 °F 84% 29.99 in - South 36.8 mph 43.7 mph N/A   Unknown
8:00 PM 45.9 °F 35.4 °F 42.4 °F 88% 29.96 in - South 38.0 mph 46.0 mph N/A   Unknown
9:00 PM 46.0 °F 35.6 °F 43.9 °F 92% 29.94 in - South 38.0 mph 46.0 mph 0.01 in   Unknown
10:00 PM 46 °F - 44 °F 91% 29.92 in - South 38.0 mph - -  
10:00 PM 46.2 °F 35.9 °F 44.2 °F 93% 29.92 in - South 38.0 mph 44.9 mph N/A   Unknown
11:00 PM 45.9 °F 35.5 °F 44.4 °F 95% 29.92 in - South 36.8 mph 46.0 mph N/A   Unknown